• In India
  • List of Countries
  • For 7 days
  • Water Temperature
  • Satellite Maps
  • Weather Map
  • Weather Widgets
  • user-avatar
    Login

    Hourly Weather Kryniczno

    Today, 19 February, Tuesday

    Time Temperature Precipitation Wind Pressure Humidity
    00:00 +3°C° 0 mm 3 mps 752 mmHg 70%
    01:00 +3°C° 0 mm 3 mps 751 mmHg 70%
    02:00 +3°C° 0 mm 3 mps 751 mmHg 71%
    03:00 +3°C° 0 mm 3 mps 751 mmHg 72%
    04:00 +2°C° 0 mm 3 mps 750 mmHg 73%
    05:00 +2°C° 0 mm 3 mps 750 mmHg 74%
    06:00 +2°C° 0 mm 3 mps 750 mmHg 75%
    07:00 +2°C° 0 mm 2 mps 750 mmHg 74%
    08:00 +3°C° 0 mm 3 mps 750 mmHg 68%
    09:00 +5°C° 0 mm 3 mps 750 mmHg 62%
    10:00 +8°C° 0 mm 3 mps 750 mmHg 57%
    11:00 +8°C° 0 mm 4 mps 750 mmHg 54%
    12:00 +11°C° 0 mm 4 mps 750 mmHg 52%
    13:00 +12°C° 0 mm 5 mps 750 mmHg 50%
    14:00 +12°C° 0 mm 5 mps 750 mmHg 54%
    15:00 +11°C° 0 mm 4 mps 749 mmHg 58%
    16:00 +11°C° 0 mm 4 mps 749 mmHg 62%
    17:00 +10°C° 0 mm 4 mps 749 mmHg 67%
    18:00 +8°C° 0 mm 4 mps 750 mmHg 72%
    19:00 +7°C° 0 mm 4 mps 750 mmHg 78%
    20:00 +6°C° 0 mm 4 mps 750 mmHg 80%
    21:00 +5°C° 0 mm 4 mps 750 mmHg 82%
    22:00 +5°C° 0 mm 4 mps 750 mmHg 84%
    23:00 +5°C° 0 mm 4 mps 751 mmHg 82%

    Tomorrow, 20 February, Wednesday

    Time Temperature Precipitation Wind Pressure Humidity
    00:00 +3°C° 0 mm 5 mps 751 mmHg 81%
    01:00 +3°C° 0 mm 5 mps 751 mmHg 79%
    02:00 +3°C° 0 mm 5 mps 751 mmHg 80%
    03:00 +3°C° 0 mm 5 mps 751 mmHg 80%
    04:00 +3°C° 0 mm 5 mps 751 mmHg 81%
    05:00 +2°C° 0 mm 5 mps 752 mmHg 83%
    06:00 +2°C° 0 mm 5 mps 752 mmHg 86%
    07:00 +1°C° 0 mm 5 mps 752 mmHg 88%
    08:00 +2°C° 0 mm 5 mps 752 mmHg 84%
    09:00 +3°C° 0 mm 6 mps 753 mmHg 80%
    10:00 +4°C° 0 mm 6 mps 753 mmHg 76%
    11:00 +4°C° 0 mm 6 mps 753 mmHg 72%
    12:00 +5°C° 0 mm 6 mps 754 mmHg 68%
    13:00 +7°C° 0 mm 6 mps 754 mmHg 64%
    14:00 +7°C° 0 mm 6 mps 754 mmHg 64%
    15:00 +7°C° 0 mm 5 mps 754 mmHg 64%
    16:00 +7°C° 0 mm 5 mps 754 mmHg 65%
    17:00 +6°C° 0 mm 4 mps 754 mmHg 69%
    18:00 +7°C° 0 mm 3 mps 755 mmHg 73%
    19:00 +6°C° 0 mm 2 mps 755 mmHg 77%
    20:00 +5°C° 0.1 mm 3 mps 755 mmHg 78%
    21:00 +5°C° 0.1 mm 3 mps 756 mmHg 79%
    22:00 +5°C° 0.1 mm 3 mps 756 mmHg 80%
    23:00 +5°C° 0 mm 3 mps 756 mmHg 80%

    Day after tomorrow, 21 February, Thursday

    Time Temperature Precipitation Wind Pressure Humidity
    00:00 +4°C° 0 mm 3 mps 756 mmHg 80%
    01:00 +4°C° 0 mm 3 mps 756 mmHg 80%
    02:00 +4°C° 0 mm 3 mps 756 mmHg 79%
    03:00 +4°C° 0 mm 3 mps 756 mmHg 79%
    04:00 +4°C° 0 mm 4 mps 756 mmHg 78%
    05:00 +4°C° 0.1 mm 4 mps 756 mmHg 78%
    06:00 +4°C° 0.1 mm 4 mps 756 mmHg 79%
    07:00 +4°C° 0.1 mm 4 mps 756 mmHg 79%
    08:00 +5°C° 0.2 mm 4 mps 756 mmHg 78%
    09:00 +5°C° 0.2 mm 5 mps 756 mmHg 77%
    10:00 +6°C° 0.2 mm 5 mps 756 mmHg 77%
    11:00 +7°C° 0.1 mm 6 mps 755 mmHg 73%
    12:00 +7°C° 0.1 mm 6 mps 755 mmHg 70%
    13:00 +8°C° 0.1 mm 6 mps 755 mmHg 67%
    14:00 +8°C° 0 mm 6 mps 755 mmHg 67%
    15:00 +8°C° 0 mm 5 mps 755 mmHg 67%
    16:00 +8°C° 0 mm 4 mps 754 mmHg 67%
    17:00 +8°C° 1.2 mm 5 mps 754 mmHg 74%
    18:00 +7°C° 1.2 mm 5 mps 754 mmHg 80%
    19:00 +5°C° 1.2 mm 6 mps 754 mmHg 86%
    20:00 +5°C° 0.6 mm 6 mps 754 mmHg 87%
    21:00 +5°C° 0.6 mm 6 mps 754 mmHg 87%
    22:00 +6°C° 0.6 mm 7 mps 754 mmHg 88%
    23:00 +7°C° 0.6 mm 6 mps 754 mmHg 89%

    22 February, Friday

    Time Temperature Precipitation Wind Pressure Humidity
    00:00 +5°C° 0.6 mm 6 mps 754 mmHg 90%
    01:00 +5°C° 0.6 mm 6 mps 755 mmHg 91%
    02:00 +5°C° 0.4 mm 6 mps 755 mmHg 90%
    03:00 +5°C° 0.4 mm 6 mps 755 mmHg 89%
    04:00 +5°C° 0.4 mm 7 mps 756 mmHg 87%
    05:00 +4°C° 0.1 mm 7 mps 757 mmHg 86%
    06:00 +2°C° 0.1 mm 6 mps 758 mmHg 84%
    07:00 +1°C° 0.1 mm 6 mps 759 mmHg 82%
    08:00 +1°C° 0 mm 6 mps 760 mmHg 77%
    09:00 +1°C° 0 mm 5 mps 761 mmHg 73%
    10:00 0°C° 0 mm 5 mps 762 mmHg 68%
    11:00 +1°C° 0 mm 5 mps 763 mmHg 63%
    12:00 +1°C° 0 mm 4 mps 763 mmHg 58%
    13:00 +1°C° 0 mm 4 mps 764 mmHg 54%
    14:00 +1°C° 0 mm 4 mps 764 mmHg 53%
    15:00 +1°C° 0 mm 4 mps 765 mmHg 53%
    16:00 +1°C° 0 mm 4 mps 765 mmHg 53%
    17:00 +1°C° 0 mm 3 mps 766 mmHg 56%
    18:00 0°C° 0 mm 3 mps 766 mmHg 59%
    19:00 -1°C° 0 mm 2 mps 767 mmHg 63%
    20:00 -2°C° 0 mm 2 mps 767 mmHg 62%
    21:00 -2°C° 0 mm 2 mps 768 mmHg 61%
    22:00 -2°C° 0 mm 2 mps 768 mmHg 60%
    23:00 -2°C° 0 mm 2 mps 768 mmHg 59%

    23 February, Saturday

    Time Temperature Precipitation Wind Pressure Humidity
    00:00 0°C° 0 mm 1 mps 768 mmHg 58%
    01:00 0°C° 0 mm 1 mps 768 mmHg 57%
    02:00 0°C° 0 mm 1 mps 768 mmHg 57%
    03:00 0°C° 0 mm 1 mps 768 mmHg 57%
    04:00 -2°C° 0 mm 0 mps 768 mmHg 58%
    05:00 -2°C° 0 mm 0 mps 768 mmHg 58%
    06:00 -2°C° 0 mm 0 mps 768 mmHg 59%
    07:00 -2°C° 0 mm 0 mps 767 mmHg 59%
    08:00 -1°C° 0 mm 0 mps 767 mmHg 53%
    09:00 +1°C° 0 mm 1 mps 767 mmHg 48%
    10:00 +2°C° 0 mm 1 mps 767 mmHg 42%
    11:00 +2°C° 0 mm 0 mps 767 mmHg 39%
    12:00 +2°C° 0 mm 0 mps 767 mmHg 36%
    13:00 +3°C° 0 mm 0 mps 766 mmHg 33%
    14:00 +3°C° 0 mm 0 mps 766 mmHg 34%
    15:00 +3°C° 0 mm 0 mps 766 mmHg 36%
    16:00 +4°C° 0 mm 1 mps 765 mmHg 38%
    17:00 +3°C° 0 mm 1 mps 765 mmHg 41%
    18:00 +3°C° 0 mm 1 mps 766 mmHg 43%
    19:00 +2°C° 0 mm 1 mps 766 mmHg 46%
    20:00 +2°C° 0 mm 1 mps 766 mmHg 47%
    21:00 +1°C° 0 mm 0 mps 765 mmHg 48%
    22:00 +1°C° 0 mm 0 mps 765 mmHg 48%
    23:00 0°C° 0 mm 0 mps 765 mmHg 49%

    24 February, Sunday

    Time Temperature Precipitation Wind Pressure Humidity
    00:00 0°C° 0 mm 0 mps 765 mmHg 50%
    01:00 0°C° 0 mm 0 mps 766 mmHg 50%
    02:00 0°C° 0 mm 0 mps 766 mmHg 51%
    03:00 -1°C° 0 mm 0 mps 766 mmHg 52%
    04:00 -1°C° 0 mm 0 mps 766 mmHg 53%
    05:00 -1°C° 0 mm 0 mps 766 mmHg 53%
    06:00 -1°C° 0 mm 0 mps 766 mmHg 53%
    07:00 -1°C° 0 mm 0 mps 766 mmHg 53%
    08:00 +1°C° 0 mm 1 mps 766 mmHg 50%
    09:00 +2°C° 0 mm 1 mps 767 mmHg 48%
    10:00 +3°C° 0 mm 1 mps 767 mmHg 45%
    11:00 +4°C° 0 mm 1 mps 767 mmHg 46%
    12:00 +5°C° 0 mm 1 mps 767 mmHg 48%
    13:00 +6°C° 0 mm 1 mps 767 mmHg 49%
    14:00 +6°C° 0 mm 1 mps 767 mmHg 51%
    15:00 +6°C° 0 mm 1 mps 766 mmHg 53%
    16:00 +6°C° 0 mm 1 mps 766 mmHg 55%
    17:00 +5°C° 0 mm 1 mps 766 mmHg 60%
    18:00 +4°C° 0 mm 1 mps 766 mmHg 64%
    19:00 +2°C° 0 mm 1 mps 767 mmHg 68%
    20:00 +2°C° 0 mm 1 mps 767 mmHg 70%
    21:00 +2°C° 0 mm 1 mps 767 mmHg 71%
    22:00 +1°C° 0 mm 1 mps 767 mmHg 72%
    23:00 +1°C° 0 mm 1 mps 767 mmHg 73%
    Show more